World > North America > United States > Washington   City of Chelan, WA
Hourly Weather in Chelan, WashingtonChelan, Washington Hourly Weather

Chelan, WA Hourly Weather

Hourly Weather Chelan, WashingtonHourly Weather in Chelan, WA
Lat: 47.85N, Lon: 120.03W  ICAO: KEAT
Web Search

Ads allow us to feed your daily addiction for the world's greatest weather information. We're determined to offer quality sponsors, in the least annoying way possible.

Feedback

Chelan Hourly Weather

36 Hour Weather Scroll   °F Click to change Chelan hourly weather to Imperial units.Click to change Chelan hourly weather to Metric units. °C
Currently, Clear, temperature is 61°F16°C, dew point 41°F5°C, humidity 48%. Wind direction is W at 8 mph13 km/h with visibility of 10.00 mi16 km. Barometric pressure is 30.03 in1017 mb.

Sep 22
NOON

Sep 22
1:00 PM

Sep 22
2:00 PM

Sep 22
3:00 PM

Sep 22
4:00 PM

Sep 22
5:00 PM

Sep 22
6:00 PM

Sep 22
7:00 PM

Sep 22
8:00 PM

Sep 22
9:00 PM

Sep 22
10:00 PM

Sep 22
11:00 PM

Sep 23
MIDNIGHT

Sep 23
1:00 AM

Sep 23
2:00 AM

Sep 23
3:00 AM

Sep 23
4:00 AM

Sep 23
5:00 AM

Sep 23
6:00 AM

Sep 23
7:00 AM

Sep 23
8:00 AM

Sep 23
9:00 AM

Sep 23
10:00 AM

Sep 23
11:00 AM

Sep 23
NOON

Sep 23
1:00 PM

Sep 23
2:00 PM

Sep 23
3:00 PM

Sep 23
4:00 PM

Sep 23
5:00 PM

Sep 23
6:00 PM

Sep 23
7:00 PM

Sep 23
8:00 PM

Sep 23
9:00 PM

Sep 23
10:00 PM

Sep 23
11:00 PM
Cloudy Mostly Cloudy Mostly Cloudy Mostly Cloudy Partly Cloudy Partly Cloudy Partly Cloudy Clear Clear Clear Clear Clear Clear Clear Clear Clear Partly Cloudy Partly Cloudy Partly Cloudy Clear Clear Clear Clear Clear Clear Clear Clear Clear Clear Clear Clear Mostly Clear Mostly Clear Mostly Clear Clear Clear
Cloudy Mostly Cloudy Mostly Cloudy Mostly Cloudy Partly Cloudy Partly Cloudy Partly Cloudy Clear Clear Clear Clear Clear Clear Clear Clear Clear Partly Cloudy Partly Cloudy Partly Cloudy Clear Clear Clear Clear Clear Clear Clear Clear Clear Clear Clear Clear Mostly Clear Mostly Clear Mostly Clear Clear Clear
64°F18°C 66°F19°C 69°F21°C 70°F21°C 70°F21°C 71°F22°C 68°F20°C 65°F18°C 62°F17°C 60°F16°C 59°F15°C 57°F14°C 56°F13°C 55°F13°C 54°F12°C 53°F12°C 52°F11°C 51°F11°C 51°F11°C 52°F11°C 52°F11°C 55°F13°C 59°F15°C 62°F17°C 65°F18°C 69°F21°C 72°F22°C 73°F23°C 74°F23°C 75°F24°C 72°F22°C 70°F21°C 67°F19°C 65°F18°C 63°F17°C 61°F16°C
- - - - - - - - - - - - - - - - - - - - - - - - - - - - - - - - - - - -
7% 7% 7% 7% 7% 7% 2% 2% 2% 2% 2% 2% 0% 0% 0% 0% 0% 0% 0% 0% 0% 0% 0% 0% 0% 0% 0% 0% 0% 0% 0% 0% 0% 0% 0% 0%
44°F7°C 44°F7°C 45°F7°C 45°F7°C 45°F7°C 45°F7°C 45°F7°C 45°F7°C 45°F7°C 45°F7°C 46°F8°C 46°F8°C 45°F7°C 45°F7°C 44°F7°C 43°F6°C 43°F6°C 42°F6°C 42°F6°C 43°F6°C 43°F6°C 43°F6°C 44°F7°C 44°F7°C 43°F6°C 42°F6°C 41°F5°C 40°F4°C 40°F4°C 39°F4°C 40°F4°C 40°F4°C 41°F5°C 41°F5°C 42°F6°C 42°F6°C
48% 45% 42% 41% 41% 39% 44% 48% 54% 58% 62% 67% 66% 69% 69% 69% 71% 71% 71% 71% 71% 64% 57% 52% 45% 38% 33% 30% 29% 27% 31% 34% 39% 41% 46% 50%
WNW W W WNW WNW NW NW NW NW NW NW NW NW NW NW NW NW NW NW NW NW W SSW SW S SSE SE ESE E E S SSW NNW NNW NNW NNW
7 mph 6 mph 6 mph 6 mph 16 mph 16 mph 16 mph 19 mph 19 mph 19 mph 12 mph 12 mph 12 mph 10 mph 10 mph 10 mph 10 mph 10 mph 10 mph 5 mph 5 mph 5 mph 2 mph 2 mph 2 mph 4 mph 4 mph 4 mph 6 mph 6 mph 6 mph 7 mph 7 mph 7 mph 7 mph 7 mph
10 mi16 km 10 mi16 km 10 mi16 km 10 mi16 km 10 mi16 km 10 mi16 km 10 mi16 km 10 mi16 km 10 mi16 km 10 mi16 km 10 mi16 km 10 mi16 km 10 mi16 km 10 mi16 km 10 mi16 km 10 mi16 km 10 mi16 km 10 mi16 km 10 mi16 km 10 mi16 km 10 mi16 km 10 mi16 km 10 mi16 km 10 mi16 km 10 mi16 km 10 mi16 km 10 mi16 km 10 mi16 km 10 mi16 km 10 mi16 km 10 mi16 km 10 mi16 km 10 mi16 km 10 mi16 km 10 mi16 km 10 mi16 km
Hour (PDT)
Weather
Clouds
Temperature
Precip. Type
POP
Dewpoint
Humidity
Wind Direction
Wind Speed
Visibility
POP = Probability of Precipitation. ** Indicates missing data/values from model statistics.

24 Hour Forecast

Rest of Today - Mostly cloudy. Highs in the lower to mid 70s. West wind 5 to 15 mph in the afternoon, gusts up to 20 mph increasing to 30 mph in the afternoon.
Tonight - Mostly clear. Lows in the mid to upper 40s. Northwest wind 5 to 15 mph. Gusts up to 30 mph in the evening.

48 Hour Forecast API Feed


Wed, Sep 22
Noon

Wed, Sep 22
1:00 pm

Wed, Sep 22
2:00 pm

Wed, Sep 22
3:00 pm

Wed, Sep 22
4:00 pm

Wed, Sep 22
5:00 pm

Wed, Sep 22
6:00 pm

Wed, Sep 22
7:00 pm

Wed, Sep 22
8:00 pm

Wed, Sep 22
9:00 pm

Wed, Sep 22
10:00 pm

Wed, Sep 22
11:00 pm

Thu, Sep 23
Midnight

Thu, Sep 23
1:00 am

Thu, Sep 23
2:00 am

Thu, Sep 23
3:00 am

Thu, Sep 23
4:00 am

Thu, Sep 23
5:00 am

Thu, Sep 23
6:00 am

Thu, Sep 23
7:00 am

Thu, Sep 23
8:00 am

Thu, Sep 23
9:00 am

Thu, Sep 23
10:00 am

Thu, Sep 23
11:00 am

Thu, Sep 23
Noon

Thu, Sep 23
1:00 pm

Thu, Sep 23
2:00 pm

Thu, Sep 23
3:00 pm

Thu, Sep 23
4:00 pm

Thu, Sep 23
5:00 pm

Thu, Sep 23
6:00 pm

Thu, Sep 23
7:00 pm

Thu, Sep 23
8:00 pm

Thu, Sep 23
9:00 pm

Thu, Sep 23
10:00 pm

Thu, Sep 23
11:00 pm

Fri, Sep 24
Midnight

Fri, Sep 24
1:00 am

Fri, Sep 24
2:00 am

Fri, Sep 24
3:00 am

Fri, Sep 24
4:00 am

Fri, Sep 24
5:00 am

Fri, Sep 24
6:00 am

Fri, Sep 24
7:00 am

Fri, Sep 24
8:00 am

Fri, Sep 24
9:00 am

Fri, Sep 24
10:00 am

Fri, Sep 24
11:00 am
Partly CloudyPartly CloudyPartly CloudyPartly CloudyPartly CloudyPartly CloudyPartly CloudyPartly CloudyPartly CloudyPartly CloudyPartly CloudyPartly CloudyPartly CloudyPartly CloudyPartly CloudyPartly CloudyPartly CloudyPartly CloudyPartly CloudyPartly CloudyPartly CloudyCloudyCloudyPartly CloudyPartly CloudyPartly CloudyPartly CloudyPartly CloudyPartly CloudyPartly CloudyPartly CloudyPartly CloudyPartly CloudyPartly CloudyPartly CloudyPartly CloudyPartly CloudyPartly CloudyPartly CloudyPartly CloudyPartly CloudyPartly CloudyPartly CloudyPartly CloudyPartly CloudySunnySunnyPartly Cloudy
Partly cloudy Partly cloudy Partly cloudy Partly cloudy Partly cloudy Partly cloudy Partly cloudy Partly cloudy Partly cloudy Partly cloudy Partly cloudy Partly cloudy Partly cloudy Partly cloudy Partly cloudy Partly cloudy Partly cloudy Partly cloudy Partly cloudy Partly cloudy Partly cloudy Cloudy Cloudy Partly cloudy Partly cloudy Partly cloudy Partly cloudy Partly cloudy Partly cloudy Partly cloudy Partly cloudy Partly cloudy Partly cloudy Partly cloudy Partly cloudy Partly cloudy Partly cloudy Partly cloudy Partly cloudy Partly cloudy Partly cloudy Partly cloudy Partly cloudy Partly cloudy Partly cloudy Sunny Sunny Partly cloudy
69°F
21°C
73°F
23°C
74°F
23°C
74°F
23°C
72°F
22°C
70°F
21°C
66°F
19°C
60°F
16°C
54°F
12°C
53°F
12°C
52°F
11°C
51°F
11°C
50°F
10°C
49°F
10°C
49°F
9°C
48°F
9°C
47°F
9°C
47°F
8°C
47°F
8°C
46°F
8°C
50°F
10°C
55°F
13°C
59°F
15°C
63°F
17°C
66°F
19°C
68°F
20°C
70°F
21°C
72°F
22°C
71°F
22°C
70°F
21°C
67°F
19°C
60°F
16°C
53°F
12°C
52°F
11°C
51°F
11°C
51°F
10°C
50°F
10°C
49°F
9°C
47°F
9°C
47°F
8°C
47°F
8°C
48°F
9°C
50°F
10°C
50°F
10°C
56°F
13°C
60°F
16°C
64°F
18°C
69°F
21°C
39°F
4°C
41°F
5°C
42°F
5°C
42°F
6°C
44°F
7°C
45°F
7°C
46°F
8°C
48°F
9°C
46°F
8°C
46°F
8°C
46°F
8°C
46°F
8°C
45°F
7°C
45°F
7°C
44°F
7°C
44°F
7°C
43°F
6°C
42°F
6°C
42°F
6°C
42°F
5°C
41°F
5°C
41°F
5°C
41°F
5°C
41°F
5°C
39°F
4°C
38°F
3°C
37°F
3°C
37°F
3°C
35°F
2°C
34°F
1°C
35°F
1°C
35°F
2°C
33°F
1°C
33°F
1°C
32°F
0°C
33°F
0°C
33°F
0°C
33°F
0°C
33°F
1°C
33°F
1°C
33°F
1°C
35°F
2°C
38°F
3°C
38°F
3°C
38°F
4°C
38°F
3°C
38°F
3°C
39°F
4°C
29.97 in
1015 mb
29.94 in
1014 mb
29.94 in
1014 mb
29.91 in
1013 mb
29.91 in
1013 mb
29.94 in
1014 mb
29.97 in
1015 mb
30 in
1016 mb
30.06 in
1018 mb
30.09 in
1019 mb
30.12 in
1020 mb
30.12 in
1020 mb
30.15 in
1021 mb
30.15 in
1021 mb
30.15 in
1021 mb
30.15 in
1021 mb
30.15 in
1021 mb
30.15 in
1021 mb
30.15 in
1021 mb
30.18 in
1022 mb
30.18 in
1022 mb
30.15 in
1021 mb
30.15 in
1021 mb
30.15 in
1021 mb
30.15 in
1021 mb
30.12 in
1020 mb
30.12 in
1020 mb
30.09 in
1019 mb
30.06 in
1018 mb
30.06 in
1018 mb
30.06 in
1018 mb
30.09 in
1019 mb
30.12 in
1020 mb
30.12 in
1020 mb
30.12 in
1020 mb
30.12 in
1020 mb
30.15 in
1021 mb
30.15 in
1021 mb
30.15 in
1021 mb
30.15 in
1021 mb
30.15 in
1021 mb
30.15 in
1021 mb
30.15 in
1021 mb
30.15 in
1021 mb
30.15 in
1021 mb
30.12 in
1020 mb
30.12 in
1020 mb
30.09 in
1019 mb
34%31%31%32%36%41%49%63%73%78%80%82%83%84%84%84%84%84%83%83%72%60%51%44%38%33%30%28%27%27%30%39%46%49%48%49%51%54%58%58%59%62%63%64%51%43%38%34%
SWWSWWSWWSWWSWWWWWWNWWNWWNWWNWWWWNWWNWWWWWNWWNWNENEEEESEESEESEEEEESESSWWNWWNWWNWWNWNWNWNNWNNNWNNWNNEESE
1 mph
2 km/h
4 mph
7 km/h
13 mph
21 km/h
15 mph
23 km/h
16 mph
26 km/h
14 mph
23 km/h
13 mph
21 km/h
13 mph
21 km/h
11 mph
17 km/h
9 mph
14 km/h
9 mph
14 km/h
8 mph
12 km/h
8 mph
13 km/h
8 mph
13 km/h
8 mph
13 km/h
7 mph
12 km/h
7 mph
11 km/h
6 mph
10 km/h
6 mph
9 km/h
5 mph
9 km/h
4 mph
6 km/h
2 mph
3 km/h
1 mph
2 km/h
2 mph
3 km/h
3 mph
4 km/h
4 mph
6 km/h
4 mph
6 km/h
4 mph
6 km/h
5 mph
8 km/h
5 mph
8 km/h
5 mph
9 km/h
5 mph
8 km/h
3 mph
4 km/h
1 mph
1 km/h
3 mph
4 km/h
4 mph
6 km/h
4 mph
6 km/h
4 mph
6 km/h
3 mph
5 km/h
3 mph
5 km/h
3 mph
5 km/h
3 mph
5 km/h
3 mph
4 km/h
3 mph
5 km/h
2 mph
4 km/h
2 mph
3 km/h
2 mph
3 km/h
3 mph
4 km/h
0%0%0%0%0%0%0%0%0%0%0%0%0%0%0%0%0%0%0%0%0%0%0%0%0%0%0%0%0%0%0%0%0%0%0%0%0%0%0%0%0%0%0%0%0%0%0%0%
6 mi
10 km
6 mi
10 km
6 mi
10 km
6 mi
10 km
6 mi
10 km
6 mi
10 km
6 mi
10 km
6 mi
10 km
6 mi
10 km
6 mi
10 km
6 mi
10 km
6 mi
10 km
6 mi
10 km
6 mi
10 km
6 mi
10 km
6 mi
10 km
6 mi
10 km
6 mi
10 km
6 mi
10 km
6 mi
10 km
6 mi
10 km
6 mi
10 km
6 mi
10 km
6 mi
10 km
6 mi
10 km
6 mi
10 km
6 mi
10 km
6 mi
10 km
6 mi
10 km
6 mi
10 km
6 mi
10 km
6 mi
10 km
6 mi
10 km
6 mi
10 km
6 mi
10 km
6 mi
10 km
6 mi
10 km
6 mi
10 km
6 mi
10 km
6 mi
10 km
6 mi
10 km
6 mi
10 km
6 mi
10 km
6 mi
10 km
6 mi
10 km
6 mi
10 km
6 mi
10 km
6 mi
10 km

Day/Time
Weather
Condition
Temperature
Dew Point
Pressure
Humidity
Wind Direction
Wind Speed
Prob Precip %
Visibility
Prob Precip % = Probability of Precipitation.